M I D A S
Marine Information and Data Acquisition System
Tripno 1024 of the Zeeleeuw from 2006-01-17 09:22:20 to 2006-01-17 12:20:56
Back to CruiseResearch ActivitiesStationsMapUnderway DataData graphs

EquipmentUnitsComments
TimeDGPSUTC
LatitudeDGPSDM.mWGS84
LongitudeDGPSDM.mWGS84
SpeedMeteo Stationm/sRelative wind speed
DirectionMeteo StationdegRelative wind direction
TemperatureMeteo Stationdeg CelciusAir temperature
PressureMeteo StationPaAtmospheric pressure
HumidityMeteo Station%Relative humidity
Missing or incorrect values are displayed as -999
Metereological data collected by the RV Zeeleeuw from 2006-01-17 09:22:37 to 2006-01-17 12:33:39
                                                                                    Next 1000 lines
Time Latitude Longitude Speed Direction Temperature Pressure Humidity
2006-01-17 09:22:47 51°13.602 2°56.095 -999 127 6.4 100200 99
2006-01-17 09:22:53 51°13.603 2°56.092 -999 142 6.4 100200 99
2006-01-17 09:22:58 51°13.604 2°56.088 -999 141 6.4 100200 99
2006-01-17 09:23:03 51°13.605 2°56.084 -999 225 6.4 100200 99
2006-01-17 09:23:08 51°13.606 2°56.079 -999 225 6.4 100200 99
2006-01-17 09:23:14 51°13.608 2°56.073 -999 161 6.4 100200 99
2006-01-17 09:23:18 51°13.609 2°56.068 -999 158 6.4 100200 99
2006-01-17 09:23:24 51°13.612 2°56.061 -999 146 6.4 100200 99
2006-01-17 09:23:28 51°13.613 2°56.056 -999 159 6.4 100200 99
2006-01-17 09:23:34 51°13.616 2°56.047 -999 150 6.4 100200 99
2006-01-17 09:23:38 51°13.617 2°56.041 -999 153 6.4 100200 99
2006-01-17 09:23:44 51°13.619 2°56.032 -999 144 6.4 100200 99
2006-01-17 09:23:48 51°13.621 2°56.026 -999 157 6.4 100200 99
2006-01-17 09:23:54 51°13.623 2°56.016 -999 160 6.4 100200 99
2006-01-17 09:23:58 51°13.624 2°56.01 -999 156 6.4 100200 99
2006-01-17 09:24:04 51°13.626 2°55.999 -999 167 6.4 100200 99
2006-01-17 09:24:08 51°13.627 2°55.991 -999 152 6.4 100200 99
2006-01-17 09:24:13 51°13.629 2°55.982 -999 163 6.4 100200 99
2006-01-17 09:24:18 51°13.631 2°55.972 -999 146 6.4 100200 99
2006-01-17 09:24:24 51°13.633 2°55.961 -999 150 6.4 100200 99
2006-01-17 09:24:28 51°13.635 2°55.953 -999 155 6.4 100200 99
2006-01-17 09:24:33 51°13.638 2°55.944 -999 144 6.4 100200 99
2006-01-17 09:24:38 51°13.64 2°55.935 -999 153 6.4 100200 99
2006-01-17 09:24:44 51°13.644 2°55.925 -999 166 6.4 100200 99
2006-01-17 09:24:48 51°13.646 2°55.917 -999 173 6.4 100200 99
2006-01-17 09:24:54 51°13.649 2°55.907 -999 140 6.4 100200 99
2006-01-17 09:24:58 51°13.651 2°55.9 -999 131 6.4 100200 99
2006-01-17 09:25:04 51°13.655 2°55.89 -999 159 6.4 100200 99
2006-01-17 09:25:08 51°13.657 2°55.883 -999 127 6.4 100200 99
2006-01-17 09:25:14 51°13.659 2°55.872 -999 148 6.4 100200 99
2006-01-17 09:25:18 51°13.66 2°55.865 -999 174 6.4 100200 99
2006-01-17 09:25:24 51°13.663 2°55.854 -999 142 6.4 100200 99
2006-01-17 09:25:28 51°13.665 2°55.847 -999 148 6.4 100190 99
2006-01-17 09:25:34 51°13.668 2°55.837 -999 155 6.4 100190 99
2006-01-17 09:25:38 51°13.67 2°55.83 -999 157 6.4 100200 99
2006-01-17 09:25:43 51°13.672 2°55.821 -999 153 6.4 100200 99
2006-01-17 09:25:48 51°13.674 2°55.813 -999 145 6.4 100200 99
2006-01-17 09:25:54 51°13.676 2°55.802 -999 166 6.4 100200 99
2006-01-17 09:25:58 51°13.678 2°55.794 -999 154 6.4 100200 99
2006-01-17 09:26:04 51°13.68 2°55.784 -999 141 6.4 100200 99
2006-01-17 09:26:08 51°13.68 2°55.778 -999 158 6.4 100200 99
2006-01-17 09:26:14 51°13.682 2°55.769 -999 139 6.4 100200 99
2006-01-17 09:26:18 51°13.683 2°55.763 -999 141 6.4 100190 99
2006-01-17 09:26:23 51°13.684 2°55.756 -999 149 6.4 100190 99
2006-01-17 09:26:28 51°13.684 2°55.751 -999 153 6.4 100200 99
2006-01-17 09:26:32 51°13.685 2°55.747 -999 136 6.4 100200 99
2006-01-17 09:26:38 51°13.685 2°55.743 -999 139 6.3 100200 99
2006-01-17 09:26:43 51°13.686 2°55.74 -999 168 6.3 100200 99
2006-01-17 09:26:47 51°13.686 2°55.739 -999 173 6.4 100200 99
2006-01-17 09:26:52 51°13.687 2°55.737 -999 151 6.4 100200 99
2006-01-17 09:26:58 51°13.687 2°55.737 -999 157 6.3 100190 99
2006-01-17 09:27:03 51°13.688 2°55.737 -999 138 6.3 100190 99
2006-01-17 09:27:08 51°13.689 2°55.739 -999 167 6.4 100190 99
2006-01-17 09:27:13 51°13.69 2°55.74 -999 174 6.4 100190 99
2006-01-17 09:27:17 51°13.692 2°55.742 -999 176 6.4 100190 99
2006-01-17 09:27:23 51°13.694 2°55.745 -999 204 6.4 100190 99
2006-01-17 09:27:28 51°13.696 2°55.748 -999 220 6.3 100190 99
2006-01-17 09:27:33 51°13.699 2°55.75 -999 250 6.3 100190 99
2006-01-17 09:27:37 51°13.702 2°55.751 -999 265 6.4 100190 99
2006-01-17 09:27:43 51°13.706 2°55.752 -999 259 6.4 100190 99
2006-01-17 09:27:48 51°13.71 2°55.753 -999 274 6.4 100190 99
2006-01-17 09:27:53 51°13.714 2°55.752 -999 302 6.4 100190 99
2006-01-17 09:27:58 51°13.719 2°55.751 -999 308 6.4 100190 99
2006-01-17 09:28:03 51°13.724 2°55.748 -999 281 6.4 100190 99
2006-01-17 09:28:08 51°13.728 2°55.745 -999 277 6.4 100190 99
2006-01-17 09:28:13 51°13.733 2°55.741 -999 284 6.4 100190 99
2006-01-17 09:28:18 51°13.738 2°55.736 -999 284 6.5 100190 99
2006-01-17 09:28:23 51°13.742 2°55.73 -999 285 6.5 100190 99
2006-01-17 09:28:27 51°13.746 2°55.726 -999 282 6.5 100190 99
2006-01-17 09:28:32 51°13.751 2°55.72 -999 298 6.5 100190 99
2006-01-17 09:28:38 51°13.757 2°55.712 -999 316 6.4 100190 99
2006-01-17 09:28:43 51°13.763 2°55.705 -999 306 6.4 100190 99
2006-01-17 09:28:48 51°13.768 2°55.698 -999 227 6.4 100190 99
2006-01-17 09:28:52 51°13.773 2°55.692 -999 240 6.4 100190 99
2006-01-17 09:28:58 51°13.78 2°55.683 -999 270 6.5 100190 99
2006-01-17 09:29:03 51°13.787 2°55.676 -999 288 6.5 100190 99
2006-01-17 09:29:08 51°13.794 2°55.669 -999 313 6.5 100190 99
2006-01-17 09:29:12 51°13.799 2°55.663 -999 11 6.5 100190 99
2006-01-17 09:29:18 51°13.808 2°55.655 -999 17 6.5 100190 99
2006-01-17 09:29:23 51°13.816 2°55.648 -999 22 6.5 100190 99
2006-01-17 09:29:28 51°13.824 2°55.641 -999 3 6.4 100190 99
2006-01-17 09:29:33 51°13.832 2°55.635 -999 307 6.4 100190 99
2006-01-17 09:29:38 51°13.841 2°55.628 -999 289 6.5 100190 99
2006-01-17 09:29:43 51°13.849 2°55.621 -999 332 6.5 100190 99
2006-01-17 09:29:48 51°13.857 2°55.614 -999 328 6.5 100180 99
2006-01-17 09:29:53 51°13.865 2°55.608 -999 335 6.5 100180 99
2006-01-17 09:29:58 51°13.874 2°55.602 -999 4 6.4 100190 99
2006-01-17 09:30:03 51°13.882 2°55.596 -999 353 6.4 100190 99
2006-01-17 09:30:08 51°13.89 2°55.589 -999 352 6.4 100180 99
2006-01-17 09:30:13 51°13.898 2°55.583 -999 356 6.4 100180 99
2006-01-17 09:30:18 51°13.907 2°55.577 -999 357 6.5 100170 99
2006-01-17 09:30:23 51°13.915 2°55.571 -999 357 6.5 100170 99
2006-01-17 09:30:28 51°13.923 2°55.565 -999 325 6.5 100170 99
2006-01-17 09:30:33 51°13.932 2°55.558 -999 285 6.5 100170 99
2006-01-17 09:30:38 51°13.94 2°55.552 -999 280 6.5 100170 99
2006-01-17 09:30:43 51°13.948 2°55.546 -999 332 6.5 100170 99
2006-01-17 09:30:48 51°13.957 2°55.54 -999 345 6.5 100170 99
2006-01-17 09:30:53 51°13.965 2°55.534 -999 345 6.5 100170 99
2006-01-17 09:30:58 51°13.974 2°55.528 -999 347 6.5 100170 99
2006-01-17 09:31:03 51°13.982 2°55.522 -999 310 6.5 100170 99
2006-01-17 09:31:08 51°13.99 2°55.517 -999 295 6.5 100170 99
2006-01-17 09:31:13 51°13.999 2°55.511 -999 300 6.5 100170 99
2006-01-17 09:31:18 51°14.007 2°55.505 -999 317 6.5 100170 99
2006-01-17 09:31:23 51°14.016 2°55.499 -999 316 6.5 100170 99
2006-01-17 09:31:27 51°14.023 2°55.495 -999 228 6.5 100170 99
2006-01-17 09:31:33 51°14.033 2°55.487 -999 342 6.5 100170 99
2006-01-17 09:31:38 51°14.042 2°55.481 -999 354 6.5 100170 99
2006-01-17 09:31:43 51°14.05 2°55.475 -999 5 6.5 100170 99
2006-01-17 09:31:48 51°14.059 2°55.469 -999 348 6.5 100170 99
2006-01-17 09:31:53 51°14.068 2°55.462 -999 316 6.5 100170 99
2006-01-17 09:31:58 51°14.077 2°55.455 -999 228 6.5 100170 99
2006-01-17 09:32:03 51°14.086 2°55.449 -999 304 6.5 100170 99
2006-01-17 09:32:08 51°14.094 2°55.442 -999 292 6.5 100170 99
2006-01-17 09:32:13 51°14.103 2°55.435 -999 308 6.5 100170 99
2006-01-17 09:32:18 51°14.112 2°55.428 -999 327 6.5 100170 99
2006-01-17 09:32:23 51°14.122 2°55.421 -999 334 6.5 100170 99
2006-01-17 09:32:28 51°14.131 2°55.413 -999 334 6.5 100170 99
2006-01-17 09:32:33 51°14.141 2°55.405 -999 350 6.5 100170 99
2006-01-17 09:32:38 51°14.151 2°55.396 -999 345 6.5 100160 99
2006-01-17 09:32:43 51°14.161 2°55.386 -999 328 6.5 100160 99
2006-01-17 09:32:48 51°14.171 2°55.376 -999 350 6.5 100160 99
2006-01-17 09:32:53 51°14.181 2°55.365 -999 351 6.5 100160 99
2006-01-17 09:32:58 51°14.192 2°55.354 -999 346 6.5 100150 99
2006-01-17 09:33:03 51°14.202 2°55.342 -999 336 6.5 100150 99
2006-01-17 09:33:08 51°14.212 2°55.33 -999 333 6.5 100150 99
2006-01-17 09:33:13 51°14.223 2°55.317 -999 324 6.5 100150 99
2006-01-17 09:33:18 51°14.233 2°55.303 -999 331 6.5 100150 99
2006-01-17 09:33:23 51°14.243 2°55.289 -999 333 6.5 100150 99
2006-01-17 09:33:28 51°14.253 2°55.274 -999 328 6.6 100150 99
2006-01-17 09:33:33 51°14.262 2°55.259 -999 319 6.6 100150 99
2006-01-17 09:33:38 51°14.272 2°55.243 -999 317 6.6 100150 99
2006-01-17 09:33:43 51°14.281 2°55.227 -999 318 6.6 100150 99
2006-01-17 09:33:48 51°14.29 2°55.21 -999 323 6.6 100140 99
2006-01-17 09:33:52 51°14.297 2°55.197 -999 321 6.6 100140 99
2006-01-17 09:33:58 51°14.309 2°55.177 -999 321 6.6 100150 99
2006-01-17 09:34:03 51°14.318 2°55.16 -999 327 6.6 100150 99
2006-01-17 09:34:07 51°14.326 2°55.146 -999 336 6.6 100140 99
2006-01-17 09:34:13 51°14.338 2°55.125 -999 321 6.6 100140 99
2006-01-17 09:34:18 51°14.348 2°55.108 -999 330 6.6 100140 99
2006-01-17 09:34:23 51°14.358 2°55.09 -999 327 6.6 100140 99
2006-01-17 09:34:27 51°14.366 2°55.076 -999 323 6.6 100140 99
2006-01-17 09:34:33 51°14.378 2°55.055 -999 319 6.6 100140 99
2006-01-17 09:34:38 51°14.389 2°55.038 -999 316 6.6 100140 99
2006-01-17 09:34:42 51°14.397 2°55.023 -999 317 6.6 100140 99
2006-01-17 09:34:48 51°14.41 2°55.002 -999 42 6.6 100140 99
2006-01-17 09:34:53 51°14.422 2°54.986 -999 42 6.6 100140 99
2006-01-17 09:34:58 51°14.434 2°54.971 -999 312 6.6 100140 99
2006-01-17 09:35:03 51°14.447 2°54.958 -999 312 6.6 100140 99
2006-01-17 09:35:07 51°14.457 2°54.948 -999 311 6.6 100130 99
2006-01-17 09:35:13 51°14.473 2°54.934 -999 314 6.6 100130 99
2006-01-17 09:35:18 51°14.487 2°54.921 -999 310 6.6 100130 99
2006-01-17 09:35:23 51°14.501 2°54.91 -999 304 6.6 100130 99
2006-01-17 09:35:28 51°14.514 2°54.899 -999 307 6.6 100130 99
2006-01-17 09:35:33 51°14.528 2°54.888 -999 307 6.6 100130 99
2006-01-17 09:35:38 51°14.542 2°54.879 -999 306 6.5 100130 99
2006-01-17 09:35:43 51°14.557 2°54.87 -999 308 6.5 100130 99
2006-01-17 09:35:48 51°14.572 2°54.862 -999 302 6.5 100130 99
2006-01-17 09:35:52 51°14.584 2°54.856 -999 301 6.5 100130 99
2006-01-17 09:35:58 51°14.603 2°54.848 -999 305 6.5 100130 99
2006-01-17 09:36:03 51°14.618 2°54.841 -999 303 6.5 100130 99
2006-01-17 09:36:08 51°14.634 2°54.837 -999 300 6.5 100130 99
2006-01-17 09:36:13 51°14.65 2°54.831 -999 302 6.5 100130 99
2006-01-17 09:36:18 51°14.666 2°54.827 -999 301 6.5 100130 99
2006-01-17 09:36:23 51°14.683 2°54.824 -999 304 6.5 100130 99
2006-01-17 09:36:28 51°14.699 2°54.82 -999 305 6.5 100130 99
2006-01-17 09:36:33 51°14.715 2°54.816 -999 303 6.5 100130 99
2006-01-17 09:36:38 51°14.732 2°54.812 -999 308 6.5 100130 99
2006-01-17 09:36:43 51°14.748 2°54.808 -999 306 6.5 100130 99
2006-01-17 09:36:48 51°14.764 2°54.804 -999 306 6.4 100130 99
2006-01-17 09:36:53 51°14.781 2°54.798 -999 309 6.4 100130 99
2006-01-17 09:36:58 51°14.797 2°54.792 -999 305 6.4 100120 99
2006-01-17 09:37:03 51°14.814 2°54.786 -999 310 6.4 100120 99
2006-01-17 09:37:08 51°14.83 2°54.78 -999 310 6.4 100120 99
2006-01-17 09:37:13 51°14.846 2°54.772 -999 309 6.4 100120 99
2006-01-17 09:37:18 51°14.862 2°54.765 -999 310 6.4 100120 99
2006-01-17 09:37:22 51°14.875 2°54.759 -999 310 6.4 100120 99
2006-01-17 09:37:27 51°14.892 2°54.752 -999 309 6.4 100120 99
2006-01-17 09:37:32 51°14.909 2°54.746 -999 307 6.4 100120 99
2006-01-17 09:37:38 51°14.928 2°54.738 -999 313 6.3 100120 99
2006-01-17 09:37:42 51°14.941 2°54.732 -999 309 6.3 100120 99
2006-01-17 09:37:47 51°14.958 2°54.726 -999 308 6.3 100120 99
2006-01-17 09:37:53 51°14.977 2°54.717 -999 310 6.3 100120 99
2006-01-17 09:37:58 51°14.993 2°54.71 -999 309 6.3 100120 99
2006-01-17 09:38:03 51°15.01 2°54.702 -999 309 6.3 100120 99
2006-01-17 09:38:08 51°15.026 2°54.695 -999 310 6.3 100120 99
2006-01-17 09:38:12 51°15.039 2°54.69 -999 306 6.3 100120 99
2006-01-17 09:38:18 51°15.058 2°54.682 -999 308 6.3 100120 99
2006-01-17 09:38:23 51°15.074 2°54.676 -999 300 6.3 100120 99
2006-01-17 09:38:28 51°15.09 2°54.67 -999 301 6.3 100120 99
2006-01-17 09:38:32 51°15.103 2°54.666 -999 300 6.3 100120 99
2006-01-17 09:38:37 51°15.12 2°54.662 -999 309 6.3 100120 99
2006-01-17 09:38:43 51°15.139 2°54.657 -999 297 6.3 100120 99
2006-01-17 09:38:48 51°15.155 2°54.653 -999 303 6.3 100120 99
2006-01-17 09:38:53 51°15.171 2°54.649 -999 296 6.3 100120 99
2006-01-17 09:38:58 51°15.187 2°54.645 -999 305 6.2 100120 99
2006-01-17 09:39:03 51°15.204 2°54.641 -999 300 6.2 100120 99
2006-01-17 09:39:07 51°15.218 2°54.638 -999 306 6.2 100120 99
2006-01-17 09:39:12 51°15.234 2°54.634 -999 304 6.2 100120 99
2006-01-17 09:39:18 51°15.253 2°54.628 -999 305 6.2 100120 99
2006-01-17 09:39:23 51°15.27 2°54.623 -999 307 6.2 100120 99
2006-01-17 09:39:27 51°15.283 2°54.618 -999 300 6.2 100120 99
2006-01-17 09:39:32 51°15.299 2°54.611 -999 303 6.2 100120 99
2006-01-17 09:39:37 51°15.315 2°54.603 -999 308 6.2 100110 99
2006-01-17 09:39:42 51°15.331 2°54.595 -999 310 6.2 100110 99
2006-01-17 09:39:48 51°15.35 2°54.585 -999 308 6.2 100120 99
2006-01-17 09:39:52 51°15.363 2°54.579 -999 305 6.2 100120 99
2006-01-17 09:39:57 51°15.38 2°54.572 -999 309 6.2 100120 99
2006-01-17 09:40:02 51°15.396 2°54.564 -999 306 6.2 100120 99
2006-01-17 09:40:07 51°15.413 2°54.558 -999 311 6.2 100120 99
2006-01-17 09:40:12 51°15.429 2°54.551 -999 306 6.2 100120 99
2006-01-17 09:40:17 51°15.446 2°54.545 -999 308 6.1 100120 99
2006-01-17 09:40:23 51°15.466 2°54.538 -999 306 6.1 100120 99
2006-01-17 09:40:27 51°15.479 2°54.534 -999 305 6.1 100110 99
2006-01-17 09:40:32 51°15.496 2°54.528 -999 305 6.1 100110 99
2006-01-17 09:40:36 51°15.509 2°54.524 -999 307 6.1 100110 99
2006-01-17 09:40:43 51°15.532 2°54.517 -999 303 6.1 100110 99
2006-01-17 09:40:48 51°15.549 2°54.512 -999 303 6.1 100120 99
2006-01-17 09:40:52 51°15.562 2°54.508 -999 307 6.1 100120 99
2006-01-17 09:40:56 51°15.576 2°54.503 -999 303 6.1 100120 99
2006-01-17 09:41:03 51°15.599 2°54.496 -999 305 6.1 100120 99
2006-01-17 09:41:07 51°15.612 2°54.492 -999 302 6.1 100120 99
2006-01-17 09:41:12 51°15.629 2°54.486 -999 308 6.1 100120 99
2006-01-17 09:41:16 51°15.642 2°54.481 -999 309 6.1 100120 99
2006-01-17 09:41:22 51°15.662 2°54.473 -999 308 6.1 100120 99
2006-01-17 09:41:27 51°15.678 2°54.466 -999 306 6.1 100120 99
2006-01-17 09:41:32 51°15.695 2°54.46 -999 306 6.1 100120 99
2006-01-17 09:41:37 51°15.711 2°54.453 -999 305 6.1 100120 99
2006-01-17 09:41:43 51°15.731 2°54.445 -999 306 6.1 100120 99
2006-01-17 09:41:47 51°15.744 2°54.44 -999 306 6.1 100120 99
2006-01-17 09:41:52 51°15.76 2°54.434 -999 306 6.1 100120 99
2006-01-17 09:41:57 51°15.777 2°54.429 -999 304 6 100120 99
2006-01-17 09:42:02 51°15.793 2°54.422 -999 306 6 100120 99
2006-01-17 09:42:07 51°15.81 2°54.417 -999 303 6.1 100120 99
2006-01-17 09:42:13 51°15.827 2°54.411 -999 305 6.1 100120 99
2006-01-17 09:42:18 51°15.843 2°54.405 -999 305 6 100120 99
2006-01-17 09:42:23 51°15.861 2°54.399 -999 309 6 100120 99
2006-01-17 09:42:30 51°15.884 2°54.39 -999 306 6 100120 99
2006-01-17 09:42:34 51°15.898 2°54.385 -999 310 6 100120 99
2006-01-17 09:42:38 51°15.909 2°54.381 -999 307 6 100120 99
2006-01-17 09:42:42 51°15.922 2°54.376 -999 307 6 100120 99
2006-01-17 09:42:48 51°15.942 2°54.37 -999 306 6 100120 99
2006-01-17 09:42:53 51°15.958 2°54.364 -999 309 6 100120 99
2006-01-17 09:42:58 51°15.975 2°54.358 -999 305 6 100120 99
2006-01-17 09:43:03 51°15.991 2°54.353 -999 307 6 100120 99
2006-01-17 09:43:08 51°16.008 2°54.347 -999 308 6 100120 99
2006-01-17 09:43:13 51°16.025 2°54.341 -999 309 6 100120 99
2006-01-17 09:43:18 51°16.041 2°54.336 -999 310 6 100120 99
2006-01-17 09:43:23 51°16.057 2°54.331 -999 308 6 100120 99
2006-01-17 09:43:28 51°16.074 2°54.325 -999 307 5.9 100120 99
2006-01-17 09:43:33 51°16.09 2°54.32 -999 302 5.9 100120 99
2006-01-17 09:43:38 51°16.105 2°54.315 -999 302 5.9 100120 99
2006-01-17 09:43:42 51°16.117 2°54.312 -999 292 5.9 100120 99
2006-01-17 09:43:48 51°16.132 2°54.307 -999 285 5.9 100120 99
2006-01-17 09:43:53 51°16.144 2°54.307 -999 273 5.9 100120 99
2006-01-17 09:43:58 51°16.154 2°54.309 -999 265 5.9 100160 99
2006-01-17 09:44:03 51°16.163 2°54.312 -999 249 5.9 100160 99
2006-01-17 09:44:08 51°16.171 2°54.316 -999 236 5.9 100180 99
2006-01-17 09:44:13 51°16.178 2°54.321 -999 221 5.9 100180 99
2006-01-17 09:44:18 51°16.184 2°54.326 -999 213 5.9 100190 99
2006-01-17 09:44:23 51°16.189 2°54.331 -999 199 5.9 100190 99
2006-01-17 09:44:28 51°16.194 2°54.336 -999 210 5.9 100180 99
2006-01-17 09:44:33 51°16.197 2°54.342 -999 196 5.9 100180 99
2006-01-17 09:44:38 51°16.201 2°54.346 -999 197 5.9 100190 99
2006-01-17 09:44:43 51°16.204 2°54.35 -999 193 5.9 100190 99
2006-01-17 09:44:48 51°16.206 2°54.353 -999 199 5.9 100180 99
2006-01-17 09:44:53 51°16.208 2°54.356 -999 211 5.9 100180 99
2006-01-17 09:44:58 51°16.21 2°54.357 -999 211 6 100180 99
2006-01-17 09:45:03 51°16.212 2°54.358 -999 212 6 100180 99
2006-01-17 09:45:08 51°16.212 2°54.358 -999 210 6 100170 99
2006-01-17 09:45:13 51°16.213 2°54.358 -999 206 6 100170 99
2006-01-17 09:45:18 51°16.214 2°54.359 -999 214 6 100180 99
2006-01-17 09:45:22 51°16.215 2°54.359 -999 209 6 100180 99
2006-01-17 09:45:28 51°16.215 2°54.359 -999 208 6 100160 99
2006-01-17 09:45:33 51°16.216 2°54.359 -999 208 6 100160 99
2006-01-17 09:45:38 51°16.217 2°54.359 -999 207 6 100160 99
2006-01-17 09:45:42 51°16.218 2°54.359 -999 220 6 100160 99
2006-01-17 09:45:48 51°16.218 2°54.359 -999 214 6 100180 99
2006-01-17 09:45:53 51°16.219 2°54.359 -999 218 6 100180 99
2006-01-17 09:45:58 51°16.22 2°54.359 -999 212 6 100180 99
2006-01-17 09:46:02 51°16.22 2°54.359 -999 218 6 100180 99
2006-01-17 09:46:08 51°16.221 2°54.359 -999 216 6 100180 99
2006-01-17 09:46:13 51°16.222 2°54.359 -999 215 6 100180 99
2006-01-17 09:46:18 51°16.222 2°54.359 -999 221 6 100180 99
2006-01-17 09:46:23 51°16.223 2°54.359 -999 218 6 100180 99
2006-01-17 09:46:28 51°16.223 2°54.358 -999 215 6 100170 99
2006-01-17 09:46:33 51°16.224 2°54.358 -999 214 6 100170 99
2006-01-17 09:46:38 51°16.224 2°54.358 -999 217 6 100180 99
2006-01-17 09:46:42 51°16.225 2°54.357 -999 220 6 100180 99
2006-01-17 09:46:48 51°16.225 2°54.357 -999 221 6 100180 99
2006-01-17 09:46:53 51°16.226 2°54.357 -999 218 6 100180 99
2006-01-17 09:46:58 51°16.226 2°54.356 -999 222 6 100180 99
2006-01-17 09:47:03 51°16.226 2°54.356 -999 226 6 100180 99
2006-01-17 09:47:08 51°16.227 2°54.355 -999 225 6 100180 99
2006-01-17 09:47:13 51°16.227 2°54.354 -999 227 6 100180 99
2006-01-17 09:47:18 51°16.227 2°54.354 -999 220 6 100180 99
2006-01-17 09:47:24 51°16.228 2°54.353 -999 226 6 100180 99
2006-01-17 09:47:28 51°16.228 2°54.352 -999 228 6 100180 99
2006-01-17 09:47:33 51°16.228 2°54.352 -999 226 6 100180 99
2006-01-17 09:47:38 51°16.229 2°54.351 -999 229 6 100170 99
2006-01-17 09:47:43 51°16.229 2°54.35 -999 226 6 100170 99
2006-01-17 09:47:48 51°16.23 2°54.349 -999 228 6 100180 99
2006-01-17 09:47:53 51°16.23 2°54.348 -999 228 6 100180 99
2006-01-17 09:47:58 51°16.23 2°54.347 -999 230 6 100180 99
2006-01-17 09:48:03 51°16.23 2°54.347 -999 233 6 100180 99
2006-01-17 09:48:08 51°16.231 2°54.346 -999 231 6 100170 99
2006-01-17 09:48:13 51°16.231 2°54.345 -999 231 6 100170 99
2006-01-17 09:48:18 51°16.231 2°54.343 -999 233 6 100180 99
2006-01-17 09:48:22 51°16.231 2°54.342 -999 234 6 100180 99
2006-01-17 09:48:28 51°16.232 2°54.341 -999 239 6 100180 99
2006-01-17 09:48:33 51°16.232 2°54.34 -999 235 6 100180 99
2006-01-17 09:48:38 51°16.232 2°54.339 -999 237 6 100180 99
2006-01-17 09:48:43 51°16.232 2°54.338 -999 236 6 100180 99
2006-01-17 09:48:48 51°16.232 2°54.336 -999 233 6 100170 99
2006-01-17 09:48:53 51°16.232 2°54.335 -999 240 6 100170 99
2006-01-17 09:48:58 51°16.232 2°54.334 -999 244 6 100180 99
2006-01-17 09:49:03 51°16.232 2°54.333 -999 242 6 100180 99
2006-01-17 09:49:08 51°16.233 2°54.332 -999 248 6 100170 99
2006-01-17 09:49:13 51°16.233 2°54.33 -999 236 6 100170 99
2006-01-17 09:49:18 51°16.233 2°54.329 -999 243 6 100170 99
2006-01-17 09:49:23 51°16.233 2°54.328 -999 240 6 100170 99
2006-01-17 09:49:28 51°16.233 2°54.327 -999 248 6 100170 99
2006-01-17 09:49:33 51°16.233 2°54.325 -999 253 6 100170 99
2006-01-17 09:49:38 51°16.233 2°54.324 -999 244 6 100180 99
2006-01-17 09:49:44 51°16.233 2°54.323 -999 252 6 100180 99
2006-01-17 09:49:48 51°16.232 2°54.321 -999 251 5.9 100170 99
2006-01-17 09:49:53 51°16.232 2°54.32 -999 254 5.9 100170 99
2006-01-17 09:49:58 51°16.232 2°54.318 -999 251 6 100160 99
2006-01-17 09:50:03 51°16.232 2°54.317 -999 251 6 100160 99
2006-01-17 09:50:08 51°16.232 2°54.315 -999 251 6 100160 99
2006-01-17 09:50:13 51°16.232 2°54.314 -999 252 6 100160 99
2006-01-17 09:50:18 51°16.232 2°54.313 -999 254 5.9 100160 99
2006-01-17 09:50:23 51°16.232 2°54.312 -999 256 5.9 100160 99
2006-01-17 09:50:28 51°16.231 2°54.31 -999 251 6 100160 99
2006-01-17 09:50:33 51°16.231 2°54.308 -999 255 6 100160 99
2006-01-17 09:50:38 51°16.231 2°54.307 -999 252 5.9 100160 99
2006-01-17 09:50:43 51°16.23 2°54.305 -999 257 5.9 100160 99
2006-01-17 09:50:48 51°16.23 2°54.304 -999 257 5.9 100160 99
2006-01-17 09:50:53 51°16.23 2°54.302 -999 261 5.9 100160 99
2006-01-17 09:50:58 51°16.23 2°54.3 -999 261 5.9 100160 99
2006-01-17 09:51:03 51°16.229 2°54.299 -999 257 5.9 100160 99
2006-01-17 09:51:08 51°16.229 2°54.297 -999 261 6 100160 99
2006-01-17 09:51:13 51°16.228 2°54.296 -999 262 6 100160 99
2006-01-17 09:51:18 51°16.228 2°54.294 -999 262 6 100170 99
2006-01-17 09:51:23 51°16.228 2°54.292 -999 262 6 100170 99
2006-01-17 09:51:28 51°16.227 2°54.291 -999 259 5.9 100150 100
2006-01-17 09:51:33 51°16.227 2°54.29 -999 259 5.9 100150 100
2006-01-17 09:51:38 51°16.227 2°54.288 -999 261 5.9 100160 100
2006-01-17 09:51:42 51°16.226 2°54.287 -999 262 5.9 100160 100
2006-01-17 09:51:48 51°16.226 2°54.286 -999 262 5.9 100160 100
2006-01-17 09:51:53 51°16.225 2°54.285 -999 262 5.9 100160 100
2006-01-17 09:51:58 51°16.225 2°54.283 -999 262 5.9 100150 100
2006-01-17 09:52:03 51°16.224 2°54.282 -999 264 5.9 100150 100
2006-01-17 09:52:08 51°16.224 2°54.28 -999 261 5.9 100160 100
2006-01-17 09:52:13 51°16.223 2°54.279 -999 268 5.9 100160 100
2006-01-17 09:52:18 51°16.223 2°54.277 -999 263 5.9 100160 100
2006-01-17 09:52:22 51°16.222 2°54.276 -999 269 5.9 100160 100
2006-01-17 09:52:28 51°16.221 2°54.275 -999 264 5.9 100150 100
2006-01-17 09:52:33 51°16.221 2°54.273 -999 263 5.9 100150 100
2006-01-17 09:52:38 51°16.22 2°54.272 -999 260 5.9 100150 100
2006-01-17 09:52:43 51°16.22 2°54.27 -999 264 5.9 100150 100
2006-01-17 09:52:48 51°16.219 2°54.269 -999 267 5.9 100150 100
2006-01-17 09:52:53 51°16.219 2°54.268 -999 270 5.9 100150 100
2006-01-17 09:52:58 51°16.218 2°54.267 -999 269 5.9 100160 100
2006-01-17 09:53:03 51°16.218 2°54.265 -999 265 5.9 100160 100
2006-01-17 09:53:08 51°16.217 2°54.264 -999 269 5.9 100150 100
2006-01-17 09:53:13 51°16.216 2°54.263 -999 269 5.9 100150 100
2006-01-17 09:53:18 51°16.215 2°54.262 -999 265 5.9 100150 100
2006-01-17 09:53:23 51°16.215 2°54.261 -999 269 5.9 100150 100
2006-01-17 09:53:28 51°16.214 2°54.26 -999 266 5.9 100150 100
2006-01-17 09:53:33 51°16.214 2°54.258 -999 269 5.9 100150 100
2006-01-17 09:53:38 51°16.213 2°54.257 -999 267 5.9 100150 100
2006-01-17 09:53:43 51°16.212 2°54.256 -999 266 5.9 100150 100
2006-01-17 09:53:48 51°16.212 2°54.255 -999 260 5.9 100150 100
2006-01-17 09:53:53 51°16.211 2°54.254 -999 267 5.9 100150 100
2006-01-17 09:53:58 51°16.21 2°54.253 -999 264 5.9 100150 100
2006-01-17 09:54:03 51°16.21 2°54.252 -999 262 5.9 100150 100
2006-01-17 09:54:08 51°16.209 2°54.251 -999 265 5.9 100150 100
2006-01-17 09:54:13 51°16.209 2°54.25 -999 269 5.9 100150 100
2006-01-17 09:54:18 51°16.208 2°54.249 -999 263 5.9 100150 100
2006-01-17 09:54:23 51°16.208 2°54.248 -999 263 5.9 100150 100
2006-01-17 09:54:28 51°16.207 2°54.246 -999 262 5.9 100150 100
2006-01-17 09:54:33 51°16.207 2°54.245 -999 264 5.9 100150 100
2006-01-17 09:54:38 51°16.206 2°54.243 -999 267 5.9 100150 100
2006-01-17 09:54:43 51°16.206 2°54.242 -999 268 5.9 100150 100
2006-01-17 09:54:48 51°16.205 2°54.24 -999 265 5.9 100150 100
2006-01-17 09:54:53 51°16.204 2°54.239 -999 262 5.9 100150 100
2006-01-17 09:54:58 51°16.204 2°54.239 -999 265 5.9 100150 100
2006-01-17 09:55:02 51°16.203 2°54.238 -999 267 5.9 100150 100
2006-01-17 09:55:08 51°16.202 2°54.236 -999 266 5.9 100150 100
2006-01-17 09:55:13 51°16.201 2°54.235 -999 265 5.9 100150 100
2006-01-17 09:55:18 51°16.201 2°54.234 -999 264 5.9 100150 100
2006-01-17 09:55:23 51°16.2 2°54.233 -999 262 5.9 100150 100
2006-01-17 09:55:28 51°16.2 2°54.232 -999 270 6 100150 100
2006-01-17 09:55:33 51°16.199 2°54.231 -999 267 6 100150 100
2006-01-17 09:55:38 51°16.198 2°54.23 -999 267 5.9 100150 100
2006-01-17 09:55:43 51°16.197 2°54.229 -999 266 5.9 100150 100
2006-01-17 09:55:48 51°16.197 2°54.228 -999 265 5.9 100150 100
2006-01-17 09:55:53 51°16.196 2°54.227 -999 266 5.9 100150 100
2006-01-17 09:55:58 51°16.195 2°54.226 -999 265 5.9 100150 100
2006-01-17 09:56:01 51°16.195 2°54.225 -999 267 5.9 100150 100
2006-01-17 09:56:08 51°16.194 2°54.225 -999 266 5.9 100150 100
2006-01-17 09:56:13 51°16.193 2°54.224 -999 265 5.9 100150 100
2006-01-17 09:56:18 51°16.192 2°54.223 -999 267 5.9 100150 100
2006-01-17 09:56:23 51°16.191 2°54.222 -999 266 5.9 100150 100
2006-01-17 09:56:28 51°16.191 2°54.222 -999 264 5.9 100150 100
2006-01-17 09:56:33 51°16.19 2°54.221 -999 264 5.9 100150 100
2006-01-17 09:56:38 51°16.189 2°54.22 -999 266 5.9 100150 100
2006-01-17 09:56:43 51°16.188 2°54.219 -999 268 5.9 100150 100
2006-01-17 09:56:48 51°16.188 2°54.218 -999 262 5.9 100150 100
2006-01-17 09:56:53 51°16.187 2°54.217 -999 261 5.9 100150 100
2006-01-17 09:56:58 51°16.187 2°54.216 -999 265 5.9 100150 100
2006-01-17 09:57:03 51°16.187 2°54.215 -999 263 5.9 100150 100
2006-01-17 09:57:08 51°16.186 2°54.215 -999 264 5.9 100150 100
2006-01-17 09:57:13 51°16.185 2°54.214 -999 260 5.9 100150 100
2006-01-17 09:57:18 51°16.185 2°54.213 -999 266 6 100150 100
2006-01-17 09:57:22 51°16.184 2°54.212 -999 263 6 100150 100
2006-01-17 09:57:28 51°16.183 2°54.211 -999 264 5.9 100150 100
2006-01-17 09:57:33 51°16.182 2°54.21 -999 263 5.9 100150 100
2006-01-17 09:57:38 51°16.181 2°54.21 -999 262 5.9 100150 100
2006-01-17 09:57:42 51°16.181 2°54.209 -999 261 5.9 100150 100
2006-01-17 09:57:48 51°16.18 2°54.208 -999 262 5.9 100140 100
2006-01-17 09:57:53 51°16.179 2°54.207 -999 265 5.9 100140 100
2006-01-17 09:57:58 51°16.178 2°54.206 -999 264 5.9 100150 100
2006-01-17 09:58:03 51°16.178 2°54.206 -999 262 5.9 100150 100
2006-01-17 09:58:08 51°16.177 2°54.205 -999 260 5.9 100150 100
2006-01-17 09:58:13 51°16.176 2°54.204 -999 263 5.9 100150 100
2006-01-17 09:58:18 51°16.175 2°54.203 -999 262 5.9 100140 100
2006-01-17 09:58:22 51°16.174 2°54.202 -999 263 5.9 100140 100
2006-01-17 09:58:28 51°16.174 2°54.201 -999 259 5.9 100150 100
2006-01-17 09:58:33 51°16.173 2°54.2 -999 259 5.9 100150 100
2006-01-17 09:58:38 51°16.172 2°54.2 -999 261 5.9 100150 100
2006-01-17 09:58:43 51°16.171 2°54.199 -999 251 5.9 100150 100
2006-01-17 09:58:48 51°16.17 2°54.198 -999 258 5.9 100150 100
2006-01-17 09:58:53 51°16.169 2°54.197 -999 258 5.9 100150 100
2006-01-17 09:58:58 51°16.169 2°54.196 -999 258 5.9 100150 100
2006-01-17 09:59:02 51°16.168 2°54.196 -999 258 5.9 100150 100
2006-01-17 09:59:08 51°16.167 2°54.195 -999 257 5.9 100150 100
2006-01-17 09:59:13 51°16.166 2°54.194 -999 257 5.9 100150 100
2006-01-17 09:59:18 51°16.165 2°54.193 -999 258 5.9 100150 100
2006-01-17 09:59:23 51°16.165 2°54.192 -999 255 5.9 100150 100
2006-01-17 09:59:28 51°16.164 2°54.191 -999 253 5.9 100150 100
2006-01-17 09:59:33 51°16.163 2°54.19 -999 257 5.9 100150 100
2006-01-17 09:59:38 51°16.162 2°54.189 -999 258 5.9 100150 100
2006-01-17 09:59:43 51°16.161 2°54.189 -999 256 5.9 100150 100
2006-01-17 09:59:48 51°16.161 2°54.188 -999 258 5.9 100150 100
2006-01-17 09:59:53 51°16.16 2°54.187 -999 252 5.9 100150 100
2006-01-17 09:59:58 51°16.159 2°54.186 -999 255 5.9 100150 100
2006-01-17 10:00:03 51°16.158 2°54.185 -999 254 5.9 100150 100
2006-01-17 10:00:08 51°16.157 2°54.185 -999 251 5.9 100150 100
2006-01-17 10:00:13 51°16.156 2°54.184 -999 255 5.9 100150 100
2006-01-17 10:00:18 51°16.156 2°54.183 -999 254 5.9 100150 100
2006-01-17 10:00:23 51°16.155 2°54.182 -999 251 5.9 100150 100
2006-01-17 10:00:28 51°16.154 2°54.181 -999 251 5.9 100150 100
2006-01-17 10:00:33 51°16.153 2°54.18 -999 250 5.9 100150 100
2006-01-17 10:00:38 51°16.153 2°54.18 -999 245 5.9 100150 100
2006-01-17 10:00:42 51°16.152 2°54.179 -999 251 5.9 100150 100
2006-01-17 10:00:48 51°16.151 2°54.178 -999 248 5.9 100150 100
2006-01-17 10:00:53 51°16.15 2°54.177 -999 250 5.9 100150 100
2006-01-17 10:00:58 51°16.15 2°54.176 -999 249 5.9 100150 100
2006-01-17 10:01:03 51°16.149 2°54.175 -999 250 5.9 100150 100
2006-01-17 10:01:08 51°16.148 2°54.174 -999 253 5.9 100150 100
2006-01-17 10:01:13 51°16.147 2°54.174 -999 250 5.9 100150 100
2006-01-17 10:01:18 51°16.146 2°54.173 -999 250 5.9 100150 100
2006-01-17 10:01:23 51°16.146 2°54.172 -999 245 5.9 100150 100
2006-01-17 10:01:28 51°16.145 2°54.171 -999 245 5.9 100150 100
2006-01-17 10:01:33 51°16.144 2°54.17 -999 251 5.9 100150 100
2006-01-17 10:01:38 51°16.143 2°54.169 -999 249 5.9 100150 100
2006-01-17 10:01:43 51°16.142 2°54.168 -999 247 5.9 100150 100
2006-01-17 10:01:48 51°16.142 2°54.167 -999 245 5.9 100150 100
2006-01-17 10:01:53 51°16.141 2°54.167 -999 250 5.9 100150 100
2006-01-17 10:01:58 51°16.14 2°54.165 -999 247 5.9 100150 100
2006-01-17 10:02:02 51°16.14 2°54.165 -999 250 5.9 100150 100
2006-01-17 10:02:08 51°16.139 2°54.163 -999 249 5.9 100150 100
2006-01-17 10:02:13 51°16.138 2°54.163 -999 246 5.9 100150 100
2006-01-17 10:02:18 51°16.137 2°54.162 -999 244 5.9 100140 100
2006-01-17 10:02:22 51°16.137 2°54.161 -999 248 5.9 100140 100
2006-01-17 10:02:28 51°16.136 2°54.16 -999 243 5.9 100140 100
2006-01-17 10:02:33 51°16.135 2°54.159 -999 246 5.9 100140 100
2006-01-17 10:02:38 51°16.134 2°54.158 -999 252 5.9 100140 100
2006-01-17 10:02:42 51°16.134 2°54.158 -999 251 5.9 100140 100
2006-01-17 10:02:48 51°16.133 2°54.157 -999 246 5.9 100140 100
2006-01-17 10:02:53 51°16.133 2°54.156 -999 250 5.9 100140 100
2006-01-17 10:02:58 51°16.132 2°54.155 -999 243 5.9 100140 100
2006-01-17 10:03:03 51°16.131 2°54.154 -999 248 5.9 100140 100
2006-01-17 10:03:08 51°16.13 2°54.153 -999 249 5.9 100140 100
2006-01-17 10:03:13 51°16.13 2°54.152 -999 251 5.9 100140 100
2006-01-17 10:03:18 51°16.129 2°54.151 -999 256 5.9 100140 100
2006-01-17 10:03:23 51°16.129 2°54.151 -999 247 5.9 100140 100
2006-01-17 10:03:28 51°16.128 2°54.149 -999 252 5.9 100140 100
2006-01-17 10:03:33 51°16.127 2°54.149 -999 250 5.9 100140 100
2006-01-17 10:03:38 51°16.127 2°54.148 -999 248 6 100140 100
2006-01-17 10:03:43 51°16.126 2°54.147 -999 248 6 100140 100
2006-01-17 10:03:48 51°16.126 2°54.146 -999 253 6 100130 100
2006-01-17 10:03:53 51°16.125 2°54.145 -999 256 6 100130 100
2006-01-17 10:03:58 51°16.125 2°54.144 -999 253 6 100140 100
2006-01-17 10:04:02 51°16.124 2°54.144 -999 251 6 100140 100
2006-01-17 10:04:08 51°16.123 2°54.142 -999 250 6 100140 100
2006-01-17 10:04:13 51°16.123 2°54.142 -999 255 6 100140 100
2006-01-17 10:04:18 51°16.122 2°54.14 -999 253 6 100140 100
2006-01-17 10:04:22 51°16.122 2°54.14 -999 252 6 100140 100
2006-01-17 10:04:28 51°16.121 2°54.139 -999 253 6 100140 100
2006-01-17 10:04:33 51°16.121 2°54.138 -999 258 6 100140 100
2006-01-17 10:04:38 51°16.12 2°54.137 -999 253 6 100130 100
2006-01-17 10:04:43 51°16.119 2°54.136 -999 254 6 100130 100
2006-01-17 10:04:48 51°16.119 2°54.135 -999 257 6 100130 100
2006-01-17 10:04:53 51°16.118 2°54.134 -999 255 6 100130 100
2006-01-17 10:04:58 51°16.118 2°54.133 -999 255 6 100140 100
2006-01-17 10:05:02 51°16.117 2°54.132 -999 253 6 100140 100
2006-01-17 10:05:08 51°16.116 2°54.131 -999 253 6 100130 100
2006-01-17 10:05:13 51°16.116 2°54.13 -999 254 6 100130 100
2006-01-17 10:05:18 51°16.115 2°54.129 -999 256 6 100140 100
2006-01-17 10:05:22 51°16.114 2°54.128 -999 253 6 100140 100
2006-01-17 10:05:28 51°16.114 2°54.127 -999 253 6 100130 100
2006-01-17 10:05:33 51°16.113 2°54.126 -999 252 6 100130 100
2006-01-17 10:05:38 51°16.113 2°54.125 -999 254 6 100130 100
2006-01-17 10:05:42 51°16.112 2°54.125 -999 254 6 100130 100
2006-01-17 10:05:48 51°16.111 2°54.124 -999 259 6 100140 100
2006-01-17 10:05:53 51°16.111 2°54.123 -999 255 6 100140 100
2006-01-17 10:05:58 51°16.11 2°54.122 -999 259 5.9 100140 100
2006-01-17 10:06:02 51°16.11 2°54.121 -999 249 5.9 100140 100
2006-01-17 10:06:08 51°16.109 2°54.12 -999 248 5.9 100140 100
2006-01-17 10:06:13 51°16.109 2°54.119 -999 256 5.9 100140 100
2006-01-17 10:06:18 51°16.108 2°54.118 -999 260 5.9 100140 100
2006-01-17 10:06:23 51°16.107 2°54.117 -999 252 5.9 100140 100
2006-01-17 10:06:29 51°16.106 2°54.116 -999 249 5.9 100130 100
2006-01-17 10:06:34 51°16.106 2°54.115 -999 254 5.9 100130 100
2006-01-17 10:06:39 51°16.105 2°54.115 -999 254 5.9 100140 100
2006-01-17 10:06:43 51°16.105 2°54.114 -999 256 5.9 100140 100
2006-01-17 10:06:49 51°16.104 2°54.113 -999 255 5.9 100140 100
2006-01-17 10:06:54 51°16.103 2°54.112 -999 255 5.9 100140 100
2006-01-17 10:06:58 51°16.103 2°54.111 -999 252 5.9 100140 100
2006-01-17 10:07:03 51°16.102 2°54.11 -999 257 5.9 100140 100
2006-01-17 10:07:09 51°16.102 2°54.109 -999 255 5.9 100140 100
2006-01-17 10:07:14 51°16.101 2°54.109 -999 253 5.9 100140 100
2006-01-17 10:07:19 51°16.1 2°54.108 -999 255 5.9 100140 100
2006-01-17 10:07:23 51°16.1 2°54.107 -999 260 5.9 100140 100
2006-01-17 10:07:27 51°16.099 2°54.106 -999 257 5.9 100140 100
2006-01-17 10:07:34 51°16.099 2°54.105 -999 252 5.9 100140 100
2006-01-17 10:07:39 51°16.098 2°54.104 -999 259 5.9 100140 100
2006-01-17 10:07:43 51°16.098 2°54.104 -999 254 5.9 100140 100
2006-01-17 10:07:47 51°16.097 2°54.103 -999 259 5.9 100150 100
2006-01-17 10:07:53 51°16.097 2°54.101 -999 258 5.9 100150 100
2006-01-17 10:07:59 51°16.096 2°54.1 -999 258 5.9 100140 100
2006-01-17 10:08:03 51°16.097 2°54.098 -999 256 5.9 100140 100
2006-01-17 10:08:07 51°16.098 2°54.096 -999 257 5.9 100140 100
2006-01-17 10:08:13 51°16.099 2°54.094 -999 249 5.9 100140 100
2006-01-17 10:08:18 51°16.102 2°54.091 -999 248 5.9 100150 100
2006-01-17 10:08:23 51°16.104 2°54.089 -999 237 5.9 100150 100
2006-01-17 10:08:28 51°16.108 2°54.087 -999 233 5.8 100140 100
2006-01-17 10:08:34 51°16.112 2°54.086 -999 220 5.8 100140 100
2006-01-17 10:08:38 51°16.115 2°54.086 -999 224 5.8 100140 100
2006-01-17 10:08:43 51°16.119 2°54.086 -999 222 5.8 100140 100
2006-01-17 10:08:49 51°16.124 2°54.088 -999 212 5.8 100150 100
2006-01-17 10:08:54 51°16.128 2°54.091 -999 200 5.8 100150 100
2006-01-17 10:08:58 51°16.131 2°54.093 -999 199 5.8 100150 100
2006-01-17 10:09:03 51°16.135 2°54.098 -999 188 5.8 100150 100
2006-01-17 10:09:08 51°16.139 2°54.103 -999 187 5.8 100150 100
2006-01-17 10:09:13 51°16.142 2°54.109 -999 184 5.8 100150 100
2006-01-17 10:09:18 51°16.147 2°54.114 -999 197 5.8 100150 100
2006-01-17 10:09:23 51°16.151 2°54.12 -999 195 5.8 100150 100
2006-01-17 10:09:27 51°16.154 2°54.126 -999 185 5.9 100150 100
2006-01-17 10:09:33 51°16.159 2°54.134 -999 185 5.9 100150 100
2006-01-17 10:09:38 51°16.164 2°54.14 -999 202 5.9 100150 100
2006-01-17 10:09:43 51°16.168 2°54.148 -999 180 5.9 100150 100
2006-01-17 10:09:47 51°16.172 2°54.153 -999 180 6 100150 100
2006-01-17 10:09:53 51°16.179 2°54.161 -999 209 6 100150 100
2006-01-17 10:09:58 51°16.184 2°54.169 -999 187 6.1 100150 100
2006-01-17 10:10:03 51°16.189 2°54.176 -999 204 6.1 100150 100
2006-01-17 10:10:08 51°16.195 2°54.182 -999 188 6.1 100150 100
2006-01-17 10:10:13 51°16.2 2°54.189 -999 204 6.1 100150 100
2006-01-17 10:10:18 51°16.206 2°54.196 -999 201 6.2 100150 100
2006-01-17 10:10:23 51°16.212 2°54.202 -999 207 6.2 100150 100
2006-01-17 10:10:28 51°16.218 2°54.209 -999 196 6.3 100160 100
2006-01-17 10:10:33 51°16.224 2°54.215 -999 199 6.3 100160 100
2006-01-17 10:10:38 51°16.23 2°54.221 -999 203 6.3 100160 100
2006-01-17 10:10:43 51°16.235 2°54.226 -999 204 6.3 100160 100
2006-01-17 10:10:47 51°16.239 2°54.231 -999 201 6.2 100160 100
2006-01-17 10:10:53 51°16.245 2°54.237 -999 194 6.2 100160 100
2006-01-17 10:10:58 51°16.249 2°54.242 -999 199 6.2 100160 100
2006-01-17 10:11:03 51°16.254 2°54.246 -999 198 6.2 100160 100
2006-01-17 10:11:08 51°16.258 2°54.25 -999 201 6.2 100160 100
2006-01-17 10:11:13 51°16.262 2°54.254 -999 200 6.2 100160 100
2006-01-17 10:11:18 51°16.265 2°54.258 -999 201 6.2 100160 100
2006-01-17 10:11:23 51°16.269 2°54.262 -999 199 6.2 100160 100
2006-01-17 10:11:28 51°16.273 2°54.265 -999 202 6.2 100160 100
2006-01-17 10:11:33 51°16.276 2°54.268 -999 199 6.2 100160 100
2006-01-17 10:11:38 51°16.278 2°54.272 -999 195 6.1 100160 100
2006-01-17 10:11:43 51°16.281 2°54.276 -999 184 6.1 100160 100
2006-01-17 10:11:47 51°16.283 2°54.278 -999 193 6.1 100160 100
2006-01-17 10:11:53 51°16.286 2°54.282 -999 181 6.1 100160 100
2006-01-17 10:11:58 51°16.288 2°54.285 -999 185 6.1 100160 100
2006-01-17 10:12:03 51°16.29 2°54.289 -999 179 6.1 100160 100
2006-01-17 10:12:07 51°16.291 2°54.292 -999 181 6.2 100160 100
2006-01-17 10:12:13 51°16.293 2°54.296 -999 175 6.2 100160 100
2006-01-17 10:12:18 51°16.295 2°54.299 -999 174 6.2 100160 100
2006-01-17 10:12:23 51°16.296 2°54.302 -999 168 6.2 100160 100
2006-01-17 10:12:27 51°16.297 2°54.305 -999 169 6.2 100160 100
2006-01-17 10:12:33 51°16.298 2°54.308 -999 168 6.2 100160 100
2006-01-17 10:12:38 51°16.299 2°54.311 -999 168 6.2 100160 100
2006-01-17 10:12:43 51°16.3 2°54.314 -999 168 6.2 100160 100
2006-01-17 10:12:48 51°16.301 2°54.317 -999 171 6.2 100160 100
2006-01-17 10:12:53 51°16.301 2°54.319 -999 162 6.2 100160 100
2006-01-17 10:12:58 51°16.302 2°54.322 -999 163 6.1 100160 100
2006-01-17 10:13:03 51°16.303 2°54.324 -999 160 6.1 100160 100
2006-01-17 10:13:07 51°16.303 2°54.326 -999 161 6.1 100160 100
2006-01-17 10:13:13 51°16.303 2°54.329 -999 157 6.1 100160 100
2006-01-17 10:13:18 51°16.303 2°54.332 -999 155 6.1 100160 100
2006-01-17 10:13:23 51°16.304 2°54.334 -999 159 6.1 100160 100
2006-01-17 10:13:27 51°16.304 2°54.336 -999 156 6.1 100160 100
2006-01-17 10:13:33 51°16.304 2°54.338 -999 159 6.1 100160 100
2006-01-17 10:13:38 51°16.304 2°54.34 -999 157 6.1 100160 100
2006-01-17 10:13:43 51°16.304 2°54.342 -999 154 6.1 100160 100
2006-01-17 10:13:47 51°16.304 2°54.344 -999 152 6.1 100160 100
2006-01-17 10:13:53 51°16.304 2°54.346 -999 149 6.1 100160 100
2006-01-17 10:13:57 51°16.304 2°54.348 -999 153 6.1 100160 100
2006-01-17 10:14:03 51°16.304 2°54.35 -999 150 6.1 100160 100
2006-01-17 10:14:07 51°16.303 2°54.352 -999 148 6 100160 100
2006-01-17 10:14:13 51°16.303 2°54.354 -999 152 6 100160 100
2006-01-17 10:14:18 51°16.303 2°54.356 -999 150 6 100160 100
2006-01-17 10:14:23 51°16.302 2°54.357 -999 155 6 100160 100
2006-01-17 10:14:27 51°16.302 2°54.359 -999 149 6 100160 100
2006-01-17 10:14:33 51°16.302 2°54.361 -999 150 6 100160 100
2006-01-17 10:14:37 51°16.301 2°54.362 -999 149 6 100160 100
2006-01-17 10:14:43 51°16.301 2°54.364 -999 145 6 100160 100
2006-01-17 10:14:47 51°16.301 2°54.365 -999 147 6 100160 100
2006-01-17 10:14:53 51°16.3 2°54.367 -999 147 6 100160 100
2006-01-17 10:14:57 51°16.3 2°54.368 -999 146 6 100160 100
2006-01-17 10:15:03 51°16.299 2°54.369 -999 147 6 100160 100
2006-01-17 10:15:07 51°16.299 2°54.371 -999 145 6 100160 100
2006-01-17 10:15:13 51°16.298 2°54.372 -999 142 6 100160 100
2006-01-17 10:15:17 51°16.298 2°54.373 -999 144 6 100160 100
2006-01-17 10:15:23 51°16.297 2°54.375 -999 139 6 100160 100
2006-01-17 10:15:28 51°16.296 2°54.376 -999 141 6 100160 100
2006-01-17 10:15:33 51°16.296 2°54.377 -999 139 6 100160 100
2006-01-17 10:15:37 51°16.295 2°54.378 -999 141 6 100160 100
2006-01-17 10:15:42 51°16.294 2°54.379 -999 140 6 100160 100
2006-01-17 10:15:47 51°16.294 2°54.38 -999 141 6 100160 100
2006-01-17 10:15:53 51°16.293 2°54.381 -999 138 6 100160 100
2006-01-17 10:15:57 51°16.292 2°54.382 -999 138 6 100160 100
2006-01-17 10:16:03 51°16.291 2°54.383 -999 139 6 100160 100
2006-01-17 10:16:07 51°16.291 2°54.384 -999 135 6 100160 100
2006-01-17 10:16:13 51°16.29 2°54.385 -999 137 6 100160 100
2006-01-17 10:16:18 51°16.289 2°54.386 -999 136 6 100160 100
2006-01-17 10:16:22 51°16.289 2°54.387 -999 139 6 100160 100
2006-01-17 10:16:27 51°16.288 2°54.387 -999 136 6 100150 100
2006-01-17 10:16:33 51°16.287 2°54.389 -999 136 6 100150 100
2006-01-17 10:16:38 51°16.286 2°54.389 -999 137 6 100150 100
2006-01-17 10:16:43 51°16.286 2°54.39 -999 136 6 100150 100
2006-01-17 10:16:48 51°16.285 2°54.391 -999 136 5.9 100150 100
2006-01-17 10:16:53 51°16.284 2°54.392 -999 134 5.9 100150 100
2006-01-17 10:16:58 51°16.283 2°54.392 -999 132 6 100150 100
2006-01-17 10:17:03 51°16.282 2°54.393 -999 135 6 100150 100
2006-01-17 10:17:07 51°16.282 2°54.393 -999 132 5.9 100150 100
2006-01-17 10:17:13 51°16.281 2°54.394 -999 132 5.9 100150 100
2006-01-17 10:17:18 51°16.28 2°54.394 -999 129 6 100150 100
2006-01-17 10:17:23 51°16.279 2°54.395 -999 128 6 100150 100
2006-01-17 10:17:28 51°16.278 2°54.396 -999 129 5.9 100150 100
2006-01-17 10:17:31 51°16.277 2°54.396 -999 127 5.9 100150 100
2006-01-17 10:17:38 51°16.276 2°54.396 -999 124 5.9 100150 100
2006-01-17 10:17:43 51°16.275 2°54.397 -999 130 5.9 100150 100
2006-01-17 10:17:48 51°16.274 2°54.397 -999 129 6 100160 100
2006-01-17 10:17:53 51°16.273 2°54.398 -999 120 6 100160 100
2006-01-17 10:17:58 51°16.272 2°54.398 -999 121 5.9 100150 100
2006-01-17 10:18:03 51°16.271 2°54.398 -999 121 5.9 100150 100
2006-01-17 10:18:07 51°16.27 2°54.399 -999 122 5.9 100150 100
2006-01-17 10:18:13 51°16.269 2°54.399 -999 120 5.9 100150 100
2006-01-17 10:18:17 51°16.268 2°54.399 -999 125 5.9 100150 100
2006-01-17 10:18:23 51°16.267 2°54.4 -999 118 5.9 100150 100
2006-01-17 10:18:27 51°16.266 2°54.4 -999 119 5.9 100150 100
2006-01-17 10:18:33 51°16.265 2°54.4 -999 123 5.9 100150 100
2006-01-17 10:18:38 51°16.264 2°54.401 -999 119 5.9 100150 100
2006-01-17 10:18:42 51°16.263 2°54.401 -999 119 5.9 100150 100
2006-01-17 10:18:47 51°16.262 2°54.401 -999 118 5.9 100150 100
2006-01-17 10:18:53 51°16.261 2°54.401 -999 117 5.9 100150 100
2006-01-17 10:18:58 51°16.26 2°54.401 -999 115 5.9 100150 100
2006-01-17 10:19:03 51°16.259 2°54.401 -999 116 5.9 100150 100
2006-01-17 10:19:07 51°16.258 2°54.401 -999 111 5.9 100150 100
2006-01-17 10:19:11 51°16.258 2°54.401 -999 113 5.9 100150 100
2006-01-17 10:19:18 51°16.256 2°54.401 -999 115 5.9 100150 100
2006-01-17 10:19:23 51°16.255 2°54.401 -999 112 5.9 100150 100
2006-01-17 10:19:27 51°16.254 2°54.402 -999 111 5.9 100150 100
2006-01-17 10:19:33 51°16.253 2°54.401 -999 114 5.9 100150 100
2006-01-17 10:19:37 51°16.253 2°54.401 -999 112 5.9 100150 100
2006-01-17 10:19:43 51°16.251 2°54.401 -999 110 5.9 100150 100
2006-01-17 10:19:47 51°16.251 2°54.401 -999 110 5.9 100150 100
2006-01-17 10:19:53 51°16.249 2°54.401 -999 109 5.9 100150 100
2006-01-17 10:19:57 51°16.249 2°54.401 -999 110 5.9 100150 100
2006-01-17 10:20:03 51°16.248 2°54.401 -999 110 5.9 100150 100
2006-01-17 10:20:08 51°16.247 2°54.401 -999 107 5.9 100150 100
2006-01-17 10:20:13 51°16.246 2°54.401 -999 107 5.9 100150 100
2006-01-17 10:20:17 51°16.245 2°54.401 -999 104 5.9 100150 100
2006-01-17 10:20:23 51°16.244 2°54.4 -999 104 5.9 100150 100
2006-01-17 10:20:27 51°16.243 2°54.4 -999 103 5.9 100150 100
2006-01-17 10:20:33 51°16.242 2°54.4 -999 105 5.9 100150 100
2006-01-17 10:20:38 51°16.241 2°54.4 -999 109 5.9 100130 100
2006-01-17 10:20:43 51°16.24 2°54.399 -999 102 5.9 100130 100
2006-01-17 10:20:47 51°16.239 2°54.399 -999 107 5.9 100130 100
2006-01-17 10:20:53 51°16.238 2°54.399 -999 99 5.9 100130 100
2006-01-17 10:20:58 51°16.237 2°54.399 -999 100 5.9 100130 100
2006-01-17 10:21:03 51°16.236 2°54.398 -999 105 5.9 100130 100
2006-01-17 10:21:07 51°16.235 2°54.398 -999 102 5.9 100130 100
2006-01-17 10:21:13 51°16.234 2°54.398 -999 98 5.9 100130 100
2006-01-17 10:21:17 51°16.233 2°54.398 -999 102 5.9 100130 100
2006-01-17 10:21:23 51°16.233 2°54.397 -999 100 5.9 100130 100
2006-01-17 10:21:27 51°16.232 2°54.397 -999 102 5.9 100130 100
2006-01-17 10:21:33 51°16.231 2°54.397 -999 100 5.9 100130 100
2006-01-17 10:21:37 51°16.23 2°54.396 -999 101 5.9 100130 100
2006-01-17 10:21:43 51°16.229 2°54.396 -999 101 5.9 100130 100
2006-01-17 10:21:48 51°16.228 2°54.396 -999 97 5.9 100130 100
2006-01-17 10:21:53 51°16.227 2°54.395 -999 94 5.9 100130 100
2006-01-17 10:21:57 51°16.226 2°54.395 -999 97 5.9 100130 100
2006-01-17 10:22:03 51°16.225 2°54.395 -999 97 5.9 100130 100
2006-01-17 10:22:07 51°16.224 2°54.394 -999 98 5.9 100130 100
2006-01-17 10:22:13 51°16.224 2°54.394 -999 97 5.9 100130 100
2006-01-17 10:22:18 51°16.223 2°54.393 -999 95 5.9 100130 100
2006-01-17 10:22:22 51°16.223 2°54.393 -999 103 5.9 100130 100
2006-01-17 10:22:27 51°16.222 2°54.393 -999 97 5.9 100140 100
2006-01-17 10:22:33 51°16.221 2°54.392 -999 96 5.9 100140 100
2006-01-17 10:22:37 51°16.221 2°54.392 -999 96 5.9 100140 100
2006-01-17 10:22:43 51°16.22 2°54.392 -999 97 5.9 100140 100
2006-01-17 10:22:48 51°16.219 2°54.391 -999 96 5.9 100140 100
2006-01-17 10:22:53 51°16.218 2°54.391 -999 98 5.9 100140 100
2006-01-17 10:22:58 51°16.217 2°54.391 -999 99 5.9 100140 100
2006-01-17 10:23:03 51°16.216 2°54.39 -999 93 5.9 100140 100
2006-01-17 10:23:08 51°16.215 2°54.39 -999 95 5.9 100140 100
2006-01-17 10:23:13 51°16.215 2°54.389 -999 95 5.9 100140 100
2006-01-17 10:23:18 51°16.214 2°54.389 -999 96 5.9 100140 100
2006-01-17 10:23:23 51°16.213 2°54.388 -999 94 5.9 100140 100
2006-01-17 10:23:27 51°16.213 2°54.388 -999 97 5.9 100140 100
2006-01-17 10:23:33 51°16.212 2°54.388 -999 95 5.9 100140 100
2006-01-17 10:23:37 51°16.211 2°54.387 -999 97 5.9 100140 100
2006-01-17 10:23:43 51°16.21 2°54.387 -999 91 5.9 100140 100
2006-01-17 10:23:47 51°16.209 2°54.387 -999 93 5.9 100140 100
2006-01-17 10:23:53 51°16.209 2°54.386 -999 89 5.9 100140 100
2006-01-17 10:23:58 51°16.208 2°54.386 -999 91 5.9 100120 100
2006-01-17 10:24:03 51°16.207 2°54.385 -999 94 5.9 100120 100
2006-01-17 10:24:07 51°16.206 2°54.385 -999 96 5.9 100120 100
2006-01-17 10:24:13 51°16.205 2°54.384 -999 90 5.9 100120 100
2006-01-17 10:24:18 51°16.204 2°54.384 -999 90 5.9 100120 100
2006-01-17 10:24:23 51°16.204 2°54.384 -999 89 5.9 100120 100
2006-01-17 10:24:27 51°16.203 2°54.383 -999 90 5.9 100120 100
2006-01-17 10:24:33 51°16.202 2°54.382 -999 88 5.9 100120 100
2006-01-17 10:24:38 51°16.202 2°54.382 -999 89 5.9 100120 100
2006-01-17 10:24:43 51°16.201 2°54.382 -999 90 5.9 100120 100
2006-01-17 10:24:47 51°16.2 2°54.382 -999 89 5.9 100120 100
2006-01-17 10:24:53 51°16.2 2°54.381 -999 87 5.9 100120 100
2006-01-17 10:24:58 51°16.199 2°54.381 -999 92 5.9 100120 100
2006-01-17 10:25:03 51°16.198 2°54.38 -999 89 5.9 100120 100
2006-01-17 10:25:08 51°16.198 2°54.38 -999 85 5.9 100120 100
2006-01-17 10:25:13 51°16.197 2°54.38 -999 90 5.9 100120 100
2006-01-17 10:25:18 51°16.196 2°54.379 -999 90 5.9 100140 100
2006-01-17 10:25:23 51°16.196 2°54.379 -999 87 5.9 100140 100
2006-01-17 10:25:27 51°16.195 2°54.378 -999 85 5.9 100120 100
2006-01-17 10:25:33 51°16.194 2°54.378 -999 85 5.9 100120 100
2006-01-17 10:25:37 51°16.194 2°54.378 -999 90 5.9 100120 100
2006-01-17 10:25:42 51°16.193 2°54.377 -999 87 5.9 100120 100
2006-01-17 10:25:47 51°16.192 2°54.377 -999 88 5.9 100130 100
2006-01-17 10:25:53 51°16.191 2°54.377 -999 92 5.9 100130 100
2006-01-17 10:25:57 51°16.191 2°54.376 -999 91 5.9 100120 100
2006-01-17 10:26:03 51°16.19 2°54.376 -999 86 5.9 100120 100
2006-01-17 10:26:07 51°16.189 2°54.375 -999 88 5.9 100120 100
2006-01-17 10:26:13 51°16.188 2°54.375 -999 85 5.9 100120 100
2006-01-17 10:26:18 51°16.188 2°54.375 -999 86 5.9 100120 100
2006-01-17 10:26:23 51°16.187 2°54.374 -999 89 5.9 100120 100
2006-01-17 10:26:27 51°16.187 2°54.374 -999 87 5.9 100120 100
2006-01-17 10:26:33 51°16.186 2°54.373 -999 83 5.9 100120 100
2006-01-17 10:26:38 51°16.185 2°54.373 -999 87 6 100120 100
2006-01-17 10:26:43 51°16.184 2°54.372 -999 88 6 100120 100
2006-01-17 10:26:47 51°16.184 2°54.372 -999 88 5.9 100120 100
2006-01-17 10:26:53 51°16.183 2°54.372 -999 88 5.9 100120 100
2006-01-17 10:26:57 51°16.182 2°54.371 -999 88 5.9 100120 100
2006-01-17 10:27:03 51°16.181 2°54.371 -999 88 5.9 100120 100
2006-01-17 10:27:07 51°16.181 2°54.371 -999 89 5.9 100120 100
2006-01-17 10:27:13 51°16.18 2°54.37 -999 89 5.9 100120 100
2006-01-17 10:27:18 51°16.179 2°54.37 -999 89 5.9 100120 100
2006-01-17 10:27:23 51°16.179 2°54.369 -999 91 5.9 100120 100
2006-01-17 10:27:27 51°16.178 2°54.369 -999 87 5.9 100120 100
2006-01-17 10:27:33 51°16.177 2°54.369 -999 87 5.9 100120 100
2006-01-17 10:27:37 51°16.177 2°54.369 -999 87 5.9 100120 100
2006-01-17 10:27:43 51°16.176 2°54.368 -999 87 5.9 100120 100
2006-01-17 10:27:47 51°16.175 2°54.368 -999 89 5.9 100120 100
2006-01-17 10:27:53 51°16.174 2°54.368 -999 86 5.9 100120 100
2006-01-17 10:27:57 51°16.174 2°54.367 -999 85 5.9 100120 100
2006-01-17 10:28:03 51°16.173 2°54.367 -999 87 5.9 100120 100
2006-01-17 10:28:07 51°16.173 2°54.367 -999 89 5.9 100120 100
2006-01-17 10:28:13 51°16.172 2°54.366 -999 86 5.9 100120 100
2006-01-17 10:28:17 51°16.171 2°54.366 -999 90 5.9 100120 100
2006-01-17 10:28:23 51°16.17 2°54.366 -999 88 5.9 100120 100
2006-01-17 10:28:27 51°16.17 2°54.365 -999 88 5.9 100120 100
2006-01-17 10:28:33 51°16.169 2°54.365 -999 84 5.9 100120 100
2006-01-17 10:28:38 51°16.168 2°54.365 -999 86 5.9 100130 100
2006-01-17 10:28:43 51°16.167 2°54.364 -999 86 5.9 100130 100
2006-01-17 10:28:48 51°16.167 2°54.364 -999 87 5.9 100120 100
2006-01-17 10:28:53 51°16.166 2°54.364 -999 88 5.9 100120 100
2006-01-17 10:28:58 51°16.165 2°54.364 -999 87 5.9 100130 100
2006-01-17 10:29:03 51°16.165 2°54.363 -999 86 5.9 100130 100
2006-01-17 10:29:07 51°16.164 2°54.363 -999 88 5.9 100130 100
2006-01-17 10:29:13 51°16.163 2°54.363 -999 89 5.9 100130 100
2006-01-17 10:29:18 51°16.163 2°54.362 -999 88 5.9 100140 100
2006-01-17 10:29:23 51°16.162 2°54.362 -999 90 5.9 100140 100
2006-01-17 10:29:27 51°16.161 2°54.362 -999 88 5.9 100140 100
2006-01-17 10:29:33 51°16.161 2°54.362 -999 90 5.9 100140 100
2006-01-17 10:29:38 51°16.16 2°54.361 -999 92 5.9 100140 100
2006-01-17 10:29:43 51°16.159 2°54.361 -999 92 5.9 100140 100
2006-01-17 10:29:47 51°16.159 2°54.361 -999 87 5.9 100140 100
2006-01-17 10:29:52 51°16.158 2°54.36 -999 90 5.9 100140 100
2006-01-17 10:29:58 51°16.157 2°54.36 -999 85 5.9 100140 100
2006-01-17 10:30:03 51°16.156 2°54.36 -999 88 5.9 100140 100
2006-01-17 10:30:07 51°16.156 2°54.36 -999 90 5.9 100140 100
2006-01-17 10:30:13 51°16.155 2°54.36 -999 92 5.9 100140 100
2006-01-17 10:30:17 51°16.154 2°54.359 -999 89 5.9 100140 100
2006-01-17 10:30:23 51°16.153 2°54.359 -999 85 5.9 100140 100
2006-01-17 10:30:28 51°16.153 2°54.359 -999 88 5.9 100140 100
2006-01-17 10:30:33 51°16.152 2°54.359 -999 87 5.9 100140 100
2006-01-17 10:30:38 51°16.151 2°54.358 -999 90 5.9 100130 100
2006-01-17 10:30:43 51°16.151 2°54.358 -999 89 5.9 100130 100
2006-01-17 10:30:47 51°16.15 2°54.358 -999 92 5.9 100120 100
2006-01-17 10:30:53 51°16.149 2°54.357 -999 87 5.9 100120 100
2006-01-17 10:30:58 51°16.149 2°54.357 -999 86 5.9 100120 100
2006-01-17 10:31:03 51°16.148 2°54.357 -999 90 5.9 100120 100
2006-01-17 10:31:07 51°16.147 2°54.357 -999 90 5.9 100120 100
2006-01-17 10:31:11 51°16.147 2°54.356 -999 91 5.9 100120 100
2006-01-17 10:31:18 51°16.146 2°54.356 -999 93 5.9 100120 100
2006-01-17 10:31:23 51°16.145 2°54.356 -999 88 5.9 100120 100
2006-01-17 10:31:27 51°16.144 2°54.355 -999 91 5.9 100120 100
2006-01-17 10:31:33 51°16.143 2°54.355 -999 92 5.9 100120 100
2006-01-17 10:31:38 51°16.143 2°54.355 -999 86 5.9 100120 100
2006-01-17 10:31:43 51°16.142 2°54.354 -999 88 5.9 100120 100
2006-01-17 10:31:48 51°16.141 2°54.354 -999 88 5.9 100120 100
2006-01-17 10:31:53 51°16.141 2°54.354 -999 85 5.9 100120 100
2006-01-17 10:31:58 51°16.14 2°54.354 -999 90 5.9 100120 100
2006-01-17 10:32:03 51°16.139 2°54.353 -999 85 5.9 100120 100
2006-01-17 10:32:07 51°16.138 2°54.353 -999 89 5.9 100130 100
2006-01-17 10:32:13 51°16.138 2°54.353 -999 93 5.9 100130 100
2006-01-17 10:32:18 51°16.137 2°54.353 -999 86 5.9 100120 100
2006-01-17 10:32:23 51°16.136 2°54.352 -999 93 5.9 100120 100
2006-01-17 10:32:27 51°16.136 2°54.352 -999 95 5.9 100120 100
2006-01-17 10:32:33 51°16.134 2°54.352 -999 89 5.9 100120 100
2006-01-17 10:32:38 51°16.134 2°54.352 -999 89 6 100130 100
2006-01-17 10:32:42 51°16.133 2°54.351 -999 86 6 100130 100
2006-01-17 10:32:48 51°16.132 2°54.351 -999 92 6 100130 100
2006-01-17 10:32:53 51°16.131 2°54.351 -999 87 6 100130 100
2006-01-17 10:32:58 51°16.131 2°54.351 -999 84 5.9 100130 100
2006-01-17 10:33:03 51°16.13 2°54.35 -999 89 5.9 100130 100
2006-01-17 10:33:07 51°16.129 2°54.35 -999 85 6 100130 100
2006-01-17 10:33:13 51°16.128 2°54.35 -999 92 6 100130 100
2006-01-17 10:33:17 51°16.128 2°54.35 -999 86 6 100140 100
2006-01-17 10:33:23 51°16.127 2°54.349 -999 85 6 100140 100
2006-01-17 10:33:28 51°16.126 2°54.349 -999 89 5.9 100120 100
2006-01-17 10:33:33 51°16.125 2°54.349 -999 87 5.9 100120 100
2006-01-17 10:33:38 51°16.124 2°54.349 -999 84 5.9 100130 100
2006-01-17 10:33:43 51°16.123 2°54.348 -999 81 5.9 100130 100
2006-01-17 10:33:48 51°16.123 2°54.348 -999 87 5.9 100130 100
2006-01-17 10:33:53 51°16.122 2°54.348 -999 85 5.9 100130 100
2006-01-17 10:33:57 51°16.121 2°54.348 -999 89 5.9 100130 100
2006-01-17 10:34:03 51°16.12 2°54.347 -999 88 5.9 100130 100
2006-01-17 10:34:08 51°16.119 2°54.347 -999 85 5.9 100130 100
2006-01-17 10:34:13 51°16.119 2°54.347 -999 86 5.9 100130 100
2006-01-17 10:34:18 51°16.118 2°54.347 -999 88 5.9 100130 100
2006-01-17 10:34:23 51°16.117 2°54.346 -999 83 5.9 100130 100
2006-01-17 10:34:27 51°16.117 2°54.346 -999 90 5.9 100130 100
2006-01-17 10:34:33 51°16.116 2°54.346 -999 89 5.9 100130 100
2006-01-17 10:34:38 51°16.115 2°54.345 -999 89 5.9 100130 100
2006-01-17 10:34:43 51°16.114 2°54.345 -999 88 5.9 100130 100
2006-01-17 10:34:47 51°16.114 2°54.345 -999 88 5.9 100130 100
2006-01-17 10:34:53 51°16.113 2°54.345 -999 83 5.9 100130 100
2006-01-17 10:34:58 51°16.112 2°54.345 -999 93 5.9 100130 100
2006-01-17 10:35:03 51°16.111 2°54.344 -999 89 5.9 100130 100
2006-01-17 10:35:07 51°16.111 2°54.344 -999 93 5.9 100130 100
2006-01-17 10:35:13 51°16.11 2°54.344 -999 89 5.9 100130 100
2006-01-17 10:35:18 51°16.109 2°54.343 -999 94 5.9 100130 100
2006-01-17 10:35:23 51°16.109 2°54.342 -999 92 5.9 100130 100
2006-01-17 10:35:27 51°16.108 2°54.342 -999 92 5.9 100130 100
2006-01-17 10:35:33 51°16.107 2°54.342 -999 90 5.9 100130 100
2006-01-17 10:35:37 51°16.106 2°54.342 -999 93 5.9 100150 100
2006-01-17 10:35:43 51°16.105 2°54.341 -999 90 5.9 100150 100
2006-01-17 10:35:47 51°16.105 2°54.341 -999 94 5.9 100130 100
2006-01-17 10:35:53 51°16.104 2°54.341 -999 92 5.9 100130 100
2006-01-17 10:35:58 51°16.103 2°54.341 -999 89 5.9 100130 100
2006-01-17 10:36:02 51°16.102 2°54.341 -999 90 5.9 100130 100
2006-01-17 10:36:07 51°16.101 2°54.341 -999 88 5.9 100130 100
2006-01-17 10:36:13 51°16.098 2°54.342 -999 83 5.9 100130 100
2006-01-17 10:36:18 51°16.096 2°54.342 -999 79 5.9 100130 100
2006-01-17 10:36:23 51°16.093 2°54.343 -999 65 5.9 100130 100
2006-01-17 10:36:27 51°16.09 2°54.343 -999 70 5.9 100130 100
2006-01-17 10:36:33 51°16.085 2°54.343 -999 55 5.9 100130 100
2006-01-17 10:36:37 51°16.082 2°54.342 -999 53 5.9 100120 100
2006-01-17 10:36:42 51°16.077 2°54.341 -999 47 5.9 100120 100
2006-01-17 10:36:48 51°16.072 2°54.339 -999 39 5.9 100120 100
2006-01-17 10:36:53 51°16.067 2°54.336 -999 35 5.9 100120 100
2006-01-17 10:36:57 51°16.063 2°54.333 -999 30 5.9 100120 100
2006-01-17 10:37:03 51°16.057 2°54.328 -999 23 5.9 100120 100
2006-01-17 10:37:07 51°16.054 2°54.324 -999 21 5.9 100120 100
2006-01-17 10:37:13 51°16.048 2°54.317 -999 14 5.9 100120 100
2006-01-17 10:37:18 51°16.044 2°54.31 -999 8 5.9 100120 100
2006-01-17 10:37:23 51°16.04 2°54.303 -999 359 5.9 100120 100
2006-01-17 10:37:28 51°16.037 2°54.294 -999 357 5.9 100130 100
2006-01-17 10:37:33 51°16.034 2°54.286 -999 351 5.9 100130 100
2006-01-17 10:37:38 51°16.032 2°54.277 -999 347 5.9 100130 100
2006-01-17 10:37:43 51°16.03 2°54.267 -999 337 5.9 100130 100
2006-01-17 10:37:47 51°16.029 2°54.26 -999 334 6 100150 100
2006-01-17 10:37:53 51°16.028 2°54.248 -999 330 6 100150 100
2006-01-17 10:37:57 51°16.028 2°54.24 -999 328 6 100130 100
2006-01-17 10:38:03 51°16.029 2°54.229 -999 319 6 100130 100
2006-01-17 10:38:08 51°16.03 2°54.219 -999 317 6 100120 100
2006-01-17 10:38:13 51°16.032 2°54.211 -999 311 6 100120 100
2006-01-17 10:38:17 51°16.034 2°54.204 -999 305 6 100120 100
2006-01-17 10:38:23 51°16.038 2°54.195 -999 294 6 100120 100
2006-01-17 10:38:28 51°16.041 2°54.189 -999 284 6 100120 100
2006-01-17 10:38:33 51°16.045 2°54.183 -999 284 6 100120 100
2006-01-17 10:38:38 51°16.049 2°54.178 -999 274 6 100120 100
2006-01-17 10:38:43 51°16.054 2°54.174 -999 269 6 100120 100
2006-01-17 10:38:48 51°16.059 2°54.172 -999 263 6 100120 100
2006-01-17 10:38:53 51°16.064 2°54.171 -999 254 6 100120 100
2006-01-17 10:38:58 51°16.069 2°54.17 -999 251 6 100120 100
2006-01-17 10:39:03 51°16.074 2°54.171 -999 238 6 100120 100
2006-01-17 10:39:08 51°16.078 2°54.173 -999 230 6 100130 100
2006-01-17 10:39:13 51°16.083 2°54.176 -999 219 6 100130 100
2006-01-17 10:39:18 51°16.087 2°54.18 -999 210 6 100130 100
2006-01-17 10:39:23 51°16.091 2°54.184 -999 205 6 100130 100
2006-01-17 10:39:27 51°16.094 2°54.188 -999 208 6 100130 100
2006-01-17 10:39:33 51°16.098 2°54.195 -999 210 6 100130 100
2006-01-17 10:39:38 51°16.102 2°54.2 -999 213 6 100130 100
2006-01-17 10:39:43 51°16.107 2°54.206 -999 215 6 100130 100
2006-01-17 10:39:47 51°16.111 2°54.21 -999 226 6 100140 100
2006-01-17 10:39:53 51°16.117 2°54.216 -999 221 6 100140 100
2006-01-17 10:39:58 51°16.122 2°54.221 -999 232 6 100130 100
2006-01-17 10:40:03 51°16.128 2°54.226 -999 227 6 100130 100
2006-01-17 10:40:07 51°16.132 2°54.23 -999 227 6 100140 100
2006-01-17 10:40:13 51°16.14 2°54.235 -999 234 6 100140 100
2006-01-17 10:40:18 51°16.146 2°54.24 -999 239 6 100140 100
2006-01-17 10:40:23 51°16.152 2°54.245 -999 232 6 100140 100
2006-01-17 10:40:28 51°16.158 2°54.249 -999 243 6.1 100130 100
2006-01-17 10:40:33 51°16.165 2°54.253 -999 238 6.1 100130 100
2006-01-17 10:40:38 51°16.172 2°54.257 -999 241 6 100130 100
2006-01-17 10:40:43 51°16.178 2°54.261 -999 245 6 100130 100
2006-01-17 10:40:47 51°16.184 2°54.264 -999 250 6 100130 100
2006-01-17 10:40:53 51°16.192 2°54.269 -999 245 6 100130 100
2006-01-17 10:40:58 51°16.2 2°54.272 -999 244 6.1 100130 100
2006-01-17 10:41:03 51°16.207 2°54.276 -999 249 6.1 100130 100
2006-01-17 10:41:07 51°16.212 2°54.279 -999 246 6 100130 100
2006-01-17 10:41:13 51°16.221 2°54.283 -999 251 6 100130 100
2006-01-17 10:41:17 51°16.227 2°54.286 -999 255 6.1 100130 100
2006-01-17 10:41:23 51°16.236 2°54.291 -999 251 6.1 100130 100
2006-01-17 10:41:27 51°16.242 2°54.294 -999 247 6.1 100130 100
2006-01-17 10:41:33 51°16.25 2°54.299 -999 237 6.1 100130 100
2006-01-17 10:41:38 51°16.258 2°54.303 -999 234 6 100130 100
2006-01-17 10:41:43 51°16.265 2°54.308 -999 245 6 100130 100
2006-01-17 10:41:47 51°16.27 2°54.312 -999 238 6.1 100130 100
2006-01-17 10:41:53 51°16.279 2°54.317 -999 238 6.1 100130 100
2006-01-17 10:41:58 51°16.285 2°54.321 -999 236 6 100130 100
2006-01-17 10:42:03 51°16.291 2°54.325 -999 239 6 100130 100
2006-01-17 10:42:07 51°16.296 2°54.327 -999 241 6.1 100130 100
2006-01-17 10:42:13 51°16.301 2°54.331 -999 227 6.1 100130 100
2006-01-17 10:42:18 51°16.305 2°54.334 -999 228 6 100140 100
2006-01-17 10:42:23 51°16.309 2°54.337 -999 215 6 100140 100
2006-01-17 10:42:27 51°16.311 2°54.339 -999 201 6.1 100140 100
2006-01-17 10:42:33 51°16.314 2°54.343 -999 202 6.1 100140 100
2006-01-17 10:42:37 51°16.315 2°54.345 -999 202 6.1 100130 100
2006-01-17 10:42:43 51°16.316 2°54.347 -999 188 6.1 100130 100
2006-01-17 10:42:47 51°16.317 2°54.348 -999 184 6.1 100130 100
2006-01-17 10:42:53 51°16.317 2°54.35 -999 177 6.1 100130 100
2006-01-17 10:42:58 51°16.317 2°54.351 -999 178 6.1 100140 100
2006-01-17 10:43:03 51°16.317 2°54.352 -999 173 6.1 100140 100
2006-01-17 10:43:07 51°16.317 2°54.353 -999 172 6.2 100130 100
2006-01-17 10:43:13 51°16.317 2°54.355 -999 163 6.2 100130 100
2006-01-17 10:43:17 51°16.317 2°54.356 -999 166 6.2 100140 100
2006-01-17 10:43:23 51°16.317 2°54.357 -999 160 6.2 100140 100
2006-01-17 10:43:27 51°16.317 2°54.359 -999 162 6.2 100140 100
2006-01-17 10:43:33 51°16.316 2°54.36 -999 157 6.2 100140 100
2006-01-17 10:43:38 51°16.316 2°54.362 -999 157 6.2 100150 100
2006-01-17 10:43:43 51°16.316 2°54.363 -999 153 6.2 100150 100
2006-01-17 10:43:47 51°16.316 2°54.364 -999 156 6.2 100140 100
2006-01-17 10:43:53 51°16.315 2°54.366 -999 155 6.2 100140 100
2006-01-17 10:43:58 51°16.315 2°54.367 -999 154 6.2 100140 100
2006-01-17 10:44:03 51°16.314 2°54.369 -999 151 6.2 100140 100
2006-01-17 10:44:07 51°16.314 2°54.369 -999 153 6.2 100140 100
2006-01-17 10:44:13 51°16.313 2°54.371 -999 154 6.2 100140 100
2006-01-17 10:44:18 51°16.313 2°54.373 -999 150 6.2 100140 100
2006-01-17 10:44:23 51°16.312 2°54.374 -999 139 6.2 100140 100
2006-01-17 10:44:27 51°16.312 2°54.375 -999 148 6.2 100150 100
2006-01-17 10:44:33 51°16.311 2°54.377 -999 142 6.2 100150 100
2006-01-17 10:44:38 51°16.31 2°54.378 -999 146 6.2 100150 100
2006-01-17 10:44:43 51°16.31 2°54.379 -999 144 6.2 100150 100
2006-01-17 10:44:47 51°16.309 2°54.38 -999 141 6.2 100150 100
2006-01-17 10:44:53 51°16.308 2°54.381 -999 142 6.2 100150 100
2006-01-17 10:44:57 51°16.308 2°54.383 -999 139 6.1 100150 100
2006-01-17 10:45:03 51°16.307 2°54.384 -999 142 6.1 100150 100
2006-01-17 10:45:07 51°16.307 2°54.385 -999 138 6.2 100150 100
2006-01-17 10:45:13 51°16.306 2°54.386 -999 136 6.2 100150 100
2006-01-17 10:45:17 51°16.305 2°54.387 -999 136 6.1 100150 100
2006-01-17 10:45:23 51°16.305 2°54.388 -999 136 6.1 100150 100
2006-01-17 10:45:27 51°16.304 2°54.389 -999 136 6.1 100140 100
2006-01-17 10:45:33 51°16.303 2°54.39 -999 138 6.1 100140 100
2006-01-17 10:45:38 51°16.302 2°54.391 -999 135 6.2 100140 100
2006-01-17 10:45:43 51°16.302 2°54.392 -999 131 6.2 100140 100
2006-01-17 10:45:47 51°16.301 2°54.393 -999 135 6.1 100140 100
2006-01-17 10:45:53 51°16.3 2°54.394 -999 134 6.1 100140 100
2006-01-17 10:45:58 51°16.299 2°54.395 -999 134 6.1 100140 100